FENGYUN 1C DEB, 29899

Orbit data source: Space-Track

FENGYUN 1C DEB, 29899 is space debris in SSO originally from a launch on Mon, 10 May 1999 UTC launched from the Taiyaun Space Center, China (TSC). Fengyun 1C debris stems from the Chinese weather satellite Fengyun-1C, which was intentionally destroyed by a Chinese anti-satellite missile in 2007. This event dramatically increased the amount of space debris, with thousands of trackable fragments posing hazards to satellites and human spaceflight. The Fengyun 1C debris cloud has become a focal point in discussions about space sustainability and the need for international regulations to prevent the creation of new debris.

Loading next visibility...
Identifier
29899, 1999-025GV
Orbit
SSO
Country
Flag of CNCN / PRC
Related business
Manufacturer
Unknown
Mission
Spacecraft
Bus & Motor
Unknown
Mass
Unknown
Launch date (UTC)
1999-05-10 (27 years ago)
Launch vehicle
Unknown
Launch site
Taiyaun Space Center, China (TSC)
Object type
Payload
Rocket body
Debris
Shape & HBR
Unknown shape, 0.1 m
Radar Cross Section
Small (<0.1 m²)

Expand to show TLE details & history
Last TLE update: 11 hours ago

TLE from 11 hours ago
0 FENGYUN 1C DEB
1 29899U 99025GV  26164.60516977  .00000043  00000-0  10606-3 0  9995
2 29899  98.6907 298.5886 0352173 339.3709  19.3497 13.37552900945296
Epoch: 2026-06-13T14:31Z
TLE epoch observation values (Epoch: 2026-06-13T14:31:26.668Z)
Latitude
Longitude
178.80962°
Altitude
873.149 km
Speed
7.537 km/s
True Right ascension
19h 54m 21s
True Declination
0° 00' 00"
Sunlit
Object was in full shadow at epoch
Visualization orbit readout
Latitude
Unknown
Longitude
Unknown
Altitude
Unknown
Speed
Unknown
Apparent Right ascension
Unknown
Apparent Declination
Unknown
Sunlit
N/A
Visualization observer readout
Local Sidereal Time
12:12:35
Azimuth
Unknown
Elevation
Unknown
Doppler factor
Unknown
Orbital elements
Apogee altitude
1,379.585 km
Perigee altitude
851.761 km
Semi-major axis
7,493.81 km
Eccentricity
0.03522
Inclination
98.6907°
RAAN
298.5886°
Arg. of periapsis
339.3709°
True anomaly
20.74453°
Mean anomaly
19.3497°
Eccentric anomaly
20.04119°
Mean motion
3.34572 °/min
Orbital period
107.6 mins
BSTAR
0.00010606
Loading maneuver chart data...
Computing Atmospheric mass density...

Documentation

Showing up to 5 results
|